Weather History for PADU - December, 2012

Change the Weather History Date:

Saturday, December 1, 2012

  Actual Average Record
Temperature  
Mean Temperature 37 °F -  
Max Temperature 39 °F 38 °F 48 °F (2014)
Min Temperature 35 °F 28 °F 15 °F (1987)
Degree Days  
Heating Degree Days 28    
Moisture  
Dew Point 29 °F    
Average Humidity 73    
Maximum Humidity 87    
Minimum Humidity 53    
Precipitation  
Precipitation 0.00 in - - ()
Sea Level Pressure  
Sea Level Pressure 30.20 in    
Wind  
Wind Speed 17 mph (NNW)    
Max Wind Speed 24 mph    
Max Gust Speed 38 mph    
Visibility 10 miles    
Events Rain    
Averages and records for this station are not official NWS values.
T = Trace of Precipitation, MM = Missing Value Source: NWS Daily Summary

Daily Weather History Graph

Daily Weather History Graph

Search for Another Location

Airport or City:

Trip Planner

Search our weather history database for the weather conditions in past years. The results will help you decide how hot, cold, wet, or windy it might be!

Date:

Astronomy

Dec. 01, 2012 Rise Set
Actual Time 10:02 AM AKST 5:48 PM AKST
Civil Twilight 9:20 AM AKST 6:30 PM AKST
Nautical Twilight 8:35 AM AKST 7:15 PM AKST
Astronomical Twilight 7:52 AM AKST 7:58 PM AKST
Moon 9:00 PM AKST (12/1) 12:15 PM AKST (12/1)
Length of Visible Light 9h 10m
Length of Day
7h 45m
Waning Gibbous, 91% of the Moon is Illuminated
Dec 1
Waning Gibbous
Dec 6
Last Quarter
Dec 12
New
Dec 19
First Quarter
Dec 28
Full

Hourly Weather History & Observations

Time (AKST) Temp. Windchill Dew Point Humidity Pressure Visibility Wind Dir Wind Speed Gust Speed Precip Events Conditions
12:56 AM 35.1 °F 24.8 °F 27.0 °F 72% 30.14 in 10.0 mi NNW 17.3 mph 24.2 mph N/A   Overcast
1:56 AM 35.1 °F 24.1 °F 27.0 °F 72% 30.15 in 10.0 mi NNW 19.6 mph 26.5 mph N/A   Mostly Cloudy
2:56 AM 35.1 °F 24.8 °F 27.0 °F 72% 30.15 in 10.0 mi NNW 17.3 mph 24.2 mph N/A   Mostly Cloudy
3:56 AM 35.1 °F 25.5 °F 28.0 °F 76% 30.15 in 10.0 mi North 15.0 mph - N/A   Mostly Cloudy
4:56 AM 35.1 °F 25.2 °F 27.0 °F 72% 30.17 in 10.0 mi North 16.1 mph 25.3 mph N/A   Overcast
5:56 AM 35.1 °F 24.8 °F 27.0 °F 72% 30.17 in 10.0 mi NNW 17.3 mph - N/A   Overcast
6:16 AM 35.6 °F 25.9 °F 28.4 °F 75% 30.15 in 10.0 mi NNW 16.1 mph - N/A   Mostly Cloudy
6:41 AM 35.6 °F 25.9 °F 28.4 °F 75% 30.16 in 10.0 mi North 16.1 mph - N/A   Scattered Clouds
6:56 AM 36.0 °F 26.0 °F 28.0 °F 73% 30.19 in 10.0 mi North 17.3 mph - N/A   Scattered Clouds
7:11 AM 35.6 °F 25.5 °F 28.4 °F 75% 30.17 in 10.0 mi North 17.3 mph - N/A   Mostly Cloudy
7:56 AM 36.0 °F 25.6 °F 28.9 °F 76% 30.20 in 10.0 mi NNW 18.4 mph - N/A   Overcast
8:56 AM 37.0 °F 27.7 °F 28.0 °F 70% 30.21 in 10.0 mi NNW 16.1 mph - N/A   Overcast
9:23 AM 37.4 °F 28.5 °F 28.4 °F 70% 30.19 in 10.0 mi NNW 15.0 mph - N/A   Scattered Clouds
9:56 AM 37.0 °F 28.1 °F 28.0 °F 70% 30.22 in 10.0 mi NNW 15.0 mph - 0.00 in   Scattered Clouds
10:19 AM 37.4 °F 28.9 °F 28.4 °F 70% 30.21 in 10.0 mi North 13.8 mph - N/A   Scattered Clouds
10:56 AM 37.9 °F 32.1 °F 27.0 °F 65% 30.23 in 10.0 mi NNW 8.1 mph - N/A   Scattered Clouds
11:56 AM 39.0 °F 30.6 °F 25.0 °F 57% 30.23 in 10.0 mi North 15.0 mph - N/A   Scattered Clouds
12:56 PM 39.9 °F 32.9 °F 24.1 °F 53% 30.22 in 10.0 mi NNW 11.5 mph - N/A   Mostly Cloudy
1:10 PM 39.2 °F 32.5 °F 26.6 °F 61% 30.20 in 10.0 mi NW 10.4 mph 18.4 mph N/A   Mostly Cloudy
1:56 PM 39.0 °F 31.4 °F 26.1 °F 60% 30.21 in 10.0 mi NW 12.7 mph - N/A   Mostly Cloudy
2:56 PM 39.0 °F 29.3 °F 28.9 °F 67% 30.20 in 10.0 mi WNW 19.6 mph 24.2 mph N/A   Scattered Clouds
2:58 PM 39.2 °F 30.2 °F 28.4 °F 65% 30.18 in 10.0 mi WNW 17.3 mph - N/A   Scattered Clouds
3:56 PM 39.0 °F 30.6 °F 28.9 °F 67% 30.18 in 10.0 mi NW 15.0 mph - N/A   Scattered Clouds
4:19 PM 39.2 °F 30.8 °F 30.2 °F 70% 30.17 in 10.0 mi NW 15.0 mph 23.0 mph N/A   Scattered Clouds
4:46 PM 37.4 °F 28.5 °F 30.2 °F 75% 30.16 in 10.0 mi NNW 15.0 mph 23.0 mph N/A   Mostly Cloudy
4:56 PM 37.9 °F 28.9 °F 30.0 °F 73% 30.18 in 10.0 mi NNW 16.1 mph 24.2 mph N/A   Mostly Cloudy
5:56 PM 37.9 °F 27.9 °F 30.0 °F 73% 30.22 in 10.0 mi NNW 19.6 mph 26.5 mph 0.00 in   Mostly Cloudy
6:46 PM 35.6 °F 23.7 °F 32.0 °F 87% 30.23 in 7.0 mi NNW 24.2 mph 38.0 mph 0.00 in Rain Rain
6:51 PM 35.6 °F 24.2 °F 32.0 °F 87% 30.23 in 7.0 mi NNW 21.9 mph 32.2 mph 0.00 in Rain Light Rain
6:56 PM 36.0 °F 24.2 °F 32.0 °F 86% 30.24 in 8.0 mi NNW 24.2 mph 33.4 mph 0.00 in Rain Light Rain
7:10 PM 35.6 °F 23.7 °F 30.2 °F 81% 30.22 in 10.0 mi North 24.2 mph 28.8 mph 0.00 in   Overcast
7:56 PM 37.0 °F 26.2 °F 30.0 °F 76% 30.24 in 10.0 mi NNW 21.9 mph 31.1 mph 0.00 in   Overcast
8:53 PM 35.6 °F 23.7 °F 30.2 °F 81% 30.22 in 10.0 mi North 24.2 mph 32.2 mph 0.00 in Rain Light Rain
8:56 PM 36.0 °F 25.3 °F 30.9 °F 82% 30.24 in 10.0 mi North 19.6 mph 32.2 mph 0.00 in Rain Light Rain
9:56 PM 36.0 °F 26.3 °F 30.0 °F 79% 30.24 in 10.0 mi NNW 16.1 mph 31.1 mph 0.00 in   Overcast
10:56 PM 36.0 °F 25.3 °F 28.9 °F 76% 30.22 in 10.0 mi NNW 19.6 mph 25.3 mph 0.00 in   Overcast
11:56 PM 35.1 °F 24.5 °F 30.9 °F 85% 30.21 in 10.0 mi North 18.4 mph 25.3 mph 0.00 in   Overcast